EHI
0 0 0 0 0 0 0 0 0 0 0 0 0 0 0 0 0 0 0 0 0 0 0 0 0 0 0 0 0 0 0 0 0 0 0 0 0 0 0 0 0 0 0 0
0 0 0 0 0 0 0 0 0 0 0 0 0 0 0 0 0 0 0 0 0 0 0 0 0 0 0 0 0 0 0 0 0 0 0 0 0 0 0 0 0 0 0 0
0 0 0 0 0 0 0 0 0 0 0 0 0 0 0 0 0 0 0 0 0 0 0 0 0 0 0 0 0 0 0 0 0 0 0 0 0 0 0 0 0 0 0 0
0 0 0 0 0 0 0 0 0 0 0 0 0 0 0 0 0 0 0 0 0 0 0 0 0 0 0 0 0 0 0 0 0 0 0 0 0 0 0 0 0 0 0 0
0 0 0 0 0 0 0 0 0 0 0 0 0 0 0 0 0 0 0 0 0 0 0 0 0 0 0 0 0 0 0 0 0 0 0 0 0 0 0 0 0 0 0 0
0 0 0 0 0 0 0 0 0 0 0 0 0 0 0 0 0 0 0 0 0 0 0 0 0 0 0 0 0 0 0 0 0 0 0 0 0 0 0 0 0 0 0 0
0 0 0 0 0 0 0 0 0 0 0 0 0 0 0 0 0 0 0 0 0 0 0 0 0 0 0 0 0 0 0 0 0 0 0 0 0 0 0 0 0 0 0 0
0 0 0 0 0 0 0 0 0 0 0 0 0 0 0 0 0 0 0 0 0 0 0 0 0 0 0 0 0 0 0 0 0 0 0 0 0 0 0 0 0 0 0 0
0 0 0 0 0 0 0 0 0 0 0 0 0 0 0 0 0 0 0 0 0 0 0 0 0 0 0 0 0 0 0 0 0 0 0 0 0 0 0 0 0 0 0 0
0 0 0 0 0 0 0 0 0 0 0 0 0 0 0 0 0 0 0 0 0 0 0 0 0 0 0 0 0 0 0 0 0 0 0 0 0 0 0 0 0 0 0 0
0 0 0 0 0 0 0 0 0 0 0 0 0 0 0 0 0 0 0 0 0 0 0 0 0 0 0 0 0 0 0 0 0 0 0 0 0 0 0 0 0 0 0 0
0 0 0 0 0 0 0 0 0 0 0 0 0 0 0 0 0 0 0 0 0 0 0 0 0 0 0 0 0 0 0 0 0 0 0 0 0 0 0 0 0 0 0 0
0 0 0 0 0 0 0 0 0 0 0 0 0 0 0 0 0 0 0 0 0 0 0 0 0 0 0 0 0 0 0 0 0 0 0 0 0 0 0 0 0 0 0 0
0 0 0 0 0 0 0 0 0 0 0 0 0 0 0 0 0 0 0 0 0 0 0 0 0 0 0 0 0 0 0 0 0 0 0 0 0 0 0 0 0 0 0 0
0 0 0 0 0 0 0 0 0 0 0 0 0 0 0 0 0 0 0 0 0 0 0 0 0 0 0 0 0 0 0 0 0 0 0 0 0 0 0 0 0 0 0 0
0 0 0 0 0 0 0 0 0 0 0 0 0 0 0 0 0 0 0 0 0 0 0 0 0 0 0 0 0 0 0 0 0 0 0 0 0 0 0 0 0 0 0 0
0 0 0 0 0 0 0 0 0 0 0 0 0 0 0 0 0 0 0 0 0 0 0 0 0 0 0 0 0 0 0 0 0 0 0 0 0 0 0 0 0 0 0 0
0 0 0 0 0 0 0 0 0 0 0 0 0 0 0 0 0 0 0 0 0 0 0 0 0 0 0 0 0 0 0 0 0 0 0 0 0 0 0 0 0 0 0 0
0 0 0 0 0 0 0 0 0 0 0 0 0 0 0 0 0 0 0 0 0 0 0 0 0 0 0 0 0 0 0 0 0 0 0 0 0 0 0 0 0 0 0 0
0 0 0 0 0 0 0 0 0 0 0 0 0 0 0 0 0 0 0 0 0 0 0 0 0 0 0 0 0 0 0 0 0 0 0 0 0 0 0 0 0 0 0 0
0 0 0 0 0 0 0 0 0 0 0 0 0 0 0 0 0 0 0 0 0 0 0 0 0 0 0 0 0 0 0 0 0 0 0 0 0 0 0 0 0 0 0 0
0 0 0 0 0 0 0 0 0 0 0 0 0 0 0 0 0 0 0 0 0 0 0 0 0 0 0 0 0 0 0 0 0 0 0 0 0 0 0 0 0 0 0 0
0 0 0 0 0 0 0 0 0 0 0 0 0 0 0 0 0 0 0 0 0 0 0 0 0 0 0 0 0 0 0 0 0 0 0 0 0 0 0 0 0 0 0 0
0 0 0 0 0 0 0 0 0 0 0 0 0 0 0 0 0 0 0 0 0 0 0 0 0 0 0 0 0 0 0 0 0 0 0 0 0 0 0 0 0 0 0 0
0 0 0 0 0 0 0 0 0 0 0 0 0 0 0 0 0 0 0 0 0 0 0 0 0 0 0 0 0 0 0 0 0 0 0 0 0 0 0 0 0 0 0 0
0 0 0 0 0 0 0 0 0 0 0 0 0 0 0 0 0 0 0 0 0 0 0 0 0 0 0 0 0 0 0 0 0 0 0 0 0 0 0 0 0 0 0 0
0 0 0 0 0 0 0 0 0 0 0 0 0 0 0 0 0 0 0 0 0 0 0 0 0 0 0 0 0 0 0 0 0 0 0 0 0 0 0 0 0 0 0 0
Wind_Speed
4 5 4 5 4 2 5 8 8 8 10 10 10 9 9 8 7 6 5 5 5 4 4 4 5 5 5 5 5 4 4 5 6 6 6 6 6 7 7 7 8 7 7 7
5 7 8 7 5 0 4 5 6 8 6 8 7 6 6 6 7 6 5 4 4 3 3 5 5 5 5 5 5 4 4 5 6 6 5 6 6 7 7 7 7 7 8 8
4 7 6 5 4 2 3 4 7 7 8 7 6 6 6 7 7 6 5 5 4 4 5 5 5 5 5 5 4 4 5 5 5 5 6 6 7 7 7 7 7 8 8 8
1 5 3 10 6 3 5 3 5 7 7 7 7 5 5 7 7 7 6 5 4 4 5 5 4 4 4 4 4 4 5 5 5 5 6 7 7 8 8 7 8 8 9 9
3 2 6 9 5 3 6 2 4 8 7 7 6 4 1 6 7 7 7 6 5 5 4 4 4 4 3 3 4 4 5 5 5 5 7 7 8 9 8 8 9 9 9 10
4 3 6 9 5 4 9 1 4 7 8 8 7 2 6 7 6 7 6 4 4 3 3 3 4 3 2 4 4 5 5 6 6 6 7 8 9 9 8 8 9 9 10 10
4 5 8 7 4 4 3 8 8 9 9 8 8 9 7 7 7 7 6 5 4 2 2 3 3 1 2 4 5 5 5 6 6 6 7 8 7 7 8 9 9 9 10 10
3 2 7 6 2 5 10 7 8 9 9 9 9 8 7 9 9 8 6 4 3 2 2 3 2 0 2 4 5 5 5 6 7 7 8 8 8 9 8 8 9 9 8 8
7 9 10 7 8 8 8 8 9 9 9 10 10 9 9 9 9 8 7 5 3 3 2 1 1 1 2 5 5 5 5 6 7 8 7 7 8 9 9 7 7 7 6 6
4 8 8 8 7 6 8 10 10 10 10 11 10 10 10 9 8 7 6 5 4 2 1 2 2 2 3 4 4 4 5 7 7 8 9 8 7 6 7 7 7 7 6 6
5 8 6 5 6 7 7 7 8 8 10 12 12 10 10 9 9 8 6 5 4 4 3 4 4 3 3 3 3 4 6 6 7 7 8 8 8 7 8 8 9 8 6 5
7 9 6 8 8 7 6 6 8 9 8 8 11 11 11 10 9 8 7 5 5 4 4 4 4 3 4 3 2 4 5 6 6 6 7 7 8 10 11 11 13 12 11 7
10 9 8 7 6 6 6 5 7 8 9 9 9 10 11 9 8 7 7 6 6 6 5 4 3 4 4 3 3 4 5 6 6 6 7 7 8 8 11 12 11 9 9 9
8 5 3 3 4 5 4 4 3 2 5 8 9 9 9 8 7 8 8 7 7 6 5 4 4 4 4 4 4 5 6 7 7 6 7 7 8 8 8 8 8 6 5 8
6 3 3 1 3 3 2 2 3 3 1 4 7 9 10 10 9 8 7 6 6 5 5 5 4 5 4 3 4 5 5 5 5 6 6 7 7 8 7 7 6 6 4 3
2 6 8 10 10 9 9 8 6 5 2 2 6 8 9 9 8 7 7 7 6 5 6 6 5 5 4 4 4 4 5 9 9 6 7 7 7 7 7 6 6 5 5 4
14 12 11 11 12 12 12 10 8 7 5 1 4 6 8 8 7 7 7 7 7 7 7 6 6 5 4 4 4 3 4 6 11 8 6 7 7 7 7 6 6 5 5 4
14 13 12 11 11 12 13 13 12 11 7 2 2 6 8 9 9 9 9 8 6 6 6 6 6 5 4 4 3 3 4 4 5 6 6 6 8 7 6 6 6 6 5 4
16 15 14 14 12 11 11 11 12 11 9 5 1 3 6 8 9 8 7 7 7 7 6 7 9 6 4 4 3 3 4 4 5 5 5 8 8 7 6 6 6 5 5 4
13 12 13 13 13 12 12 12 12 11 10 7 5 4 5 7 7 7 7 8 8 6 6 7 6 4 3 2 2 2 4 4 4 4 5 6 7 8 7 7 6 6 5 4
11 11 12 11 11 11 11 11 11 11 10 9 7 7 8 8 7 6 6 7 7 5 5 7 5 4 3 2 3 3 3 3 3 4 5 6 7 7 7 7 6 6 5 4
8 8 9 9 9 9 9 9 9 9 9 9 8 8 7 7 7 5 6 6 4 5 4 4 4 5 4 2 2 2 1 2 3 3 4 5 6 7 7 8 7 6 5 5
7 7 8 8 9 9 9 8 8 7 7 7 7 7 7 6 4 4 5 4 3 7 5 4 6 7 4 1 0 1 1 2 3 4 4 5 6 7 7 8 7 6 6 6
8 9 9 9 8 7 8 9 7 6 6 6 6 6 6 5 5 4 4 3 6 7 5 6 9 6 2 1 1 2 2 2 3 4 4 5 6 6 7 7 7 7 7 7
10 9 9 9 8 7 7 6 6 5 6 5 7 7 6 4 4 4 2 1 4 5 3 5 6 4 3 3 3 3 3 3 3 4 4 5 6 7 7 7 7 7 7 6
9 8 7 6 5 4 4 3 3 4 4 5 5 6 6 5 5 3 1 1 3 4 3 2 4 5 4 4 4 4 4 4 5 4 5 6 7 7 7 8 10 7 6 6
7 6 5 5 5 5 4 4 4 4 4 3 4 5 5 4 4 3 2 2 3 4 5 5 6 6 5 5 5 5 4 4 4 5 5 6 6 6 7 9 7 6 6 6
Wind_Direction
258 285 326 311 286 202 157 168 164 181 175 201 198 192 193 191 189 173 169 184 198 215 238 255 261 258 255 253 250 249 257 264 265 269 271 272 275 275 274 270 270 261 259 258
326 318 329 320 310 193 142 148 138 134 182 210 200 190 191 183 158 150 171 191 196 211 244 264 266 262 257 250 251 250 260 266 271 279 282 281 281 282 281 277 273 268 263 261
292 311 355 317 272 164 150 162 151 165 189 188 184 187 178 157 150 169 191 199 212 238 252 262 265 255 249 248 252 260 266 271 278 283 286 286 290 293 286 282 277 273 268 264
236 10 317 258 263 165 133 112 139 141 161 170 169 166 169 168 171 189 197 206 231 247 258 264 260 258 255 255 263 272 277 281 284 287 290 291 290 287 285 280 279 276 273 268
147 218 273 289 287 173 125 48 140 140 153 154 147 100 265 211 189 193 200 206 221 232 240 257 270 264 261 274 280 285 286 287 287 291 294 296 296 293 290 288 286 279 274 271
162 196 245 257 267 129 96 99 221 159 163 163 140 128 250 230 202 195 198 204 216 231 247 276 278 267 271 283 290 288 286 287 287 290 293 295 294 293 291 287 285 284 281 275
205 227 257 249 228 94 114 231 214 184 179 172 176 197 211 194 188 189 191 198 194 206 256 268 271 272 290 295 290 285 288 291 293 294 294 294 293 293 294 292 290 286 284 283
179 211 263 248 203 177 214 212 196 190 186 183 195 202 189 176 178 179 181 188 188 210 265 278 279 293 303 292 283 289 297 301 300 298 300 308 301 299 296 292 292 290 289 290
187 214 233 230 217 216 185 188 200 193 194 179 180 188 181 177 176 180 182 192 198 198 255 292 266 180 282 280 289 302 310 307 303 303 301 298 297 299 300 295 292 290 288 288
264 266 256 250 246 233 201 201 204 193 186 175 181 184 178 173 177 181 188 193 186 179 204 239 242 250 258 278 297 310 309 305 304 307 307 305 300 293 293 293 294 289 285 284
287 285 302 287 244 226 218 212 204 198 188 185 179 179 175 175 181 186 188 187 176 178 199 224 237 255 267 279 299 307 304 302 304 304 303 306 303 294 289 280 273 269 272 265
243 246 222 247 253 239 227 227 212 199 202 197 181 178 173 177 182 182 180 175 174 181 196 220 234 252 267 264 277 301 305 306 305 307 306 305 307 309 298 285 283 266 249 241
235 237 216 237 252 228 205 204 200 199 202 198 189 175 169 174 181 175 172 173 181 188 197 209 225 252 262 257 278 292 293 299 303 304 306 307 307 306 309 313 306 281 255 246
252 226 241 278 267 245 218 201 190 212 212 192 180 171 166 164 166 171 178 183 181 180 189 202 220 250 253 258 281 290 291 299 305 299 301 304 303 300 296 300 307 306 275 248
269 221 207 326 14 359 5 35 36 350 270 188 174 168 166 165 170 181 182 174 167 178 202 215 232 248 246 258 278 287 290 292 298 300 301 301 300 299 298 298 295 294 294 272
26 42 47 49 44 33 32 33 26 357 343 189 179 176 171 164 163 167 175 173 173 202 221 225 231 231 232 257 279 283 284 304 313 306 306 307 306 303 303 303 299 296 292 273
56 44 38 37 35 31 28 23 15 4 8 31 182 169 152 148 157 174 193 199 198 209 215 214 215 210 225 250 265 272 283 300 311 312 306 306 307 304 303 301 298 295 287 274
57 54 51 45 36 29 23 18 13 11 6 5 125 146 159 169 184 198 204 202 209 227 232 213 194 201 232 254 256 262 278 285 294 302 307 310 312 308 306 303 300 300 294 294
41 38 35 33 27 24 17 11 6 2 0 3 8 201 204 204 206 207 200 198 211 230 234 201 192 199 229 247 249 267 282 291 299 309 313 316 319 315 314 311 305 303 301 297
33 29 25 21 17 12 3 358 356 351 344 333 308 278 257 245 232 218 205 213 221 219 201 183 184 196 212 235 281 278 286 293 308 322 325 323 321 319 317 316 313 311 309 309
19 15 12 7 360 354 348 343 338 330 324 321 307 285 269 262 252 232 219 238 249 217 184 175 171 176 185 233 292 286 291 310 330 334 331 329 325 322 322 321 319 319 317 312
1 357 349 342 337 328 322 320 318 317 318 318 315 308 299 286 275 262 241 238 236 178 165 160 162 178 187 224 272 295 321 350 353 343 334 332 330 327 324 324 321 321 318 313
334 326 320 314 309 305 308 311 311 314 318 318 319 319 311 298 287 267 266 250 195 175 164 163 176 182 185 188 306 34 37 19 4 345 336 333 329 326 324 325 326 324 320 320
318 311 306 301 306 312 310 306 308 313 319 320 321 321 320 319 317 298 274 221 180 166 159 171 181 181 158 100 71 62 46 25 1 343 337 334 331 329 327 329 328 326 324 326
305 304 302 306 308 303 298 303 316 324 331 330 328 332 332 321 303 302 303 197 165 154 153 173 173 138 95 81 74 63 50 28 6 349 342 338 336 332 330 331 330 329 332 337
299 299 295 291 289 294 297 305 313 312 322 325 321 325 330 331 330 328 312 139 130 127 113 104 103 98 86 78 69 60 44 17 5 357 347 340 335 334 332 333 332 335 339 349
301 303 307 315 314 313 312 312 312 309 307 311 312 317 328 335 344 349 17 84 99 93 90 89 87 82 75 67 60 50 35 15 3 355 347 340 335 333 331 331 334 340 349 356